This is the latest recevied weather packets stored in our database for station/object WB4ZUT. If no packets are shown the sender has not sent any weather packets the latest 10 day(s).
| Time | Temp. | Humidity | Pressure | Rain* | Wind** | Luminosity | Snow |
|---|---|---|---|---|---|---|---|
| 1777483875 | 18.89° C | 70% | 1014.3 hPa | 0 mm | - | 890 W/m² | - |
| 1777483571 | 18.89° C | 70% | 1014.3 hPa | 0 mm | - | 851 W/m² | - |
| 1777483266 | 18.33° C | 71% | 1014.2 hPa | 0 mm | - | 829 W/m² | - |
| 1777482963 | 18.33° C | 70% | 1014.2 hPa | 0 mm | - | 429 W/m² | - |
| 1777482659 | 18.33° C | 68% | 1014.3 hPa | 0 mm | - | 285 W/m² | - |
| 1777482356 | 18.89° C | 69% | 1014 hPa | 0 mm | - | 800 W/m² | - |
| 1777482053 | 18.89° C | 70% | 1013.9 hPa | 0 mm | - | 286 W/m² | - |
| 1777481751 | 18.89° C | 71% | 1014 hPa | 0 mm | - | 250 W/m² | - |
| 1777481448 | 19.44° C | 69% | 1014.2 hPa | 0 mm | - | 308 W/m² | - |
| 1777481144 | 20° C | 71% | 1014.1 hPa | 0 mm | - | 327 W/m² | - |
| 1777480841 | 18.89° C | 73% | 1014.4 hPa | 0 mm | - | 840 W/m² | - |
| 1777480538 | 18.89° C | 72% | 1014.3 hPa | 0 mm | - | 255 W/m² | - |
| 1777480234 | 19.44° C | 73% | 1014.3 hPa | 0 mm | - | 740 W/m² | - |
| 1777479931 | 18.89° C | 74% | 1014.4 hPa | 0 mm | - | 923 W/m² | - |
| 1777479627 | 18.33° C | 74% | 1014.1 hPa | 0 mm | - | 901 W/m² | - |
| 1777479326 | 18.89° C | 77% | 1014.3 hPa | 0 mm | - | 920 W/m² | - |
| 1777479021 | 17.78° C | 77% | 1014.1 hPa | 0 mm | - | 959 W/m² | - |
| 1777478718 | 17.78° C | 78% | 1014.3 hPa | 0 mm | - | 896 W/m² | - |
| 1777478415 | 17.22° C | 78% | 1014.1 hPa | 0 mm | - | 891 W/m² | - |
| 1777478111 | 17.22° C | 82% | 1014.1 hPa | 0 mm | - | 914 W/m² | - |
| 1777477808 | 17.22° C | 85% | 1014.3 hPa | 0 mm | - | 227 W/m² | - |
| 1777477503 | 17.22° C | 84% | 1013.9 hPa | 0 mm | - | 314 W/m² | - |
| 1777477200 | 16.67° C | 87% | 1013.8 hPa | 0 mm | - | 864 W/m² | - |
| 1777476896 | 16.11° C | 87% | 1013.9 hPa | 0 mm | - | 225 W/m² | - |
| 1777476595 | 16.11° C | 86% | 1013.9 hPa | 0 mm | - | 125 W/m² | - |
* Rain latest hour (hover to see other rain measurements)
** Current wind speed in m/s (hover to see current wind gust speed)